QPF
0.01 0.01 0.00 0.00 0.00 0.00 0.00 0.00 0.00 0.00 0.00 0.00 0.00 0.00 0.00 0.00 0.00 0.00 0.00 0.00 0.00 0.01 0.00 0.00 0.00 0.00 0.00 0.00 0.00 0.00 0.00 0.00 0.01 0.01 0.01 0.01 0.03 0.03 0.01 0.00 0.00 0.00 0.00
0.00 0.00 0.00 0.00 0.00 0.00 0.00 0.00 0.00 0.00 0.00 0.00 0.00 0.00 0.00 0.00 0.00 0.00 0.00 0.00 0.00 0.00 0.00 0.00 0.00 0.01 0.01 0.01 0.01 0.00 0.00 0.01 0.00 0.00 0.01 0.03 0.02 0.01 0.00 0.00 0.00 0.01 0.01
0.00 0.00 0.00 0.00 0.00 0.00 0.00 0.00 0.00 0.00 0.00 0.00 0.00 0.00 0.00 0.00 0.00 0.00 0.00 0.00 0.00 0.00 0.00 0.00 0.01 0.02 0.01 0.01 0.01 0.00 0.00 0.01 0.03 0.02 0.01 0.01 0.01 0.00 0.00 0.00 0.01 0.02 0.02
0.00 0.00 0.00 0.00 0.00 0.00 0.00 0.00 0.00 0.00 0.00 0.00 0.00 0.00 0.00 0.00 0.00 0.00 0.00 0.00 0.00 0.00 0.00 0.03 0.05 0.02 0.01 0.02 0.03 0.03 0.06 0.05 0.02 0.01 0.00 0.00 0.01 0.00 0.00 0.00 0.00 0.01 0.02
0.00 0.00 0.00 0.00 0.00 0.00 0.00 0.00 0.00 0.00 0.00 0.00 0.00 0.00 0.00 0.00 0.00 0.00 0.00 0.00 0.00 0.00 0.01 0.08 0.14 0.13 0.13 0.04 0.02 0.05 0.07 0.06 0.01 0.00 0.00 0.01 0.01 0.01 0.00 0.00 0.00 0.01 0.01
0.00 0.00 0.00 0.00 0.00 0.00 0.00 0.00 0.00 0.00 0.00 0.00 0.00 0.00 0.00 0.00 0.00 0.00 0.00 0.00 0.00 0.00 0.01 0.06 0.09 0.05 0.10 0.03 0.00 0.00 0.01 0.03 0.09 0.02 0.01 0.06 0.02 0.02 0.01 0.00 0.00 0.00 0.02
0.00 0.00 0.00 0.00 0.00 0.00 0.00 0.00 0.00 0.00 0.00 0.00 0.00 0.00 0.00 0.00 0.00 0.00 0.00 0.00 0.00 0.00 0.00 0.04 0.02 0.07 0.03 0.00 0.00 0.00 0.00 0.02 0.11 0.11 0.10 0.09 0.08 0.04 0.04 0.01 0.00 0.00 0.01
0.00 0.00 0.00 0.00 0.00 0.00 0.00 0.00 0.00 0.00 0.00 0.00 0.00 0.00 0.00 0.00 0.00 0.00 0.00 0.00 0.00 0.00 0.00 0.00 0.00 0.01 0.01 0.00 0.00 0.00 0.00 0.00 0.05 0.04 0.06 0.14 0.28 0.20 0.06 0.01 0.01 0.02 0.01
0.00 0.00 0.00 0.00 0.00 0.00 0.00 0.00 0.00 0.00 0.00 0.00 0.00 0.01 0.02 0.02 0.01 0.01 0.00 0.00 0.00 0.00 0.00 0.04 0.09 0.11 0.12 0.06 0.01 0.00 0.00 0.02 0.11 0.03 0.00 0.03 0.10 0.12 0.01 0.01 0.01 0.03 0.02
0.00 0.00 0.00 0.00 0.00 0.00 0.00 0.00 0.00 0.00 0.00 0.02 0.04 0.06 0.04 0.03 0.06 0.05 0.00 0.00 0.00 0.00 0.00 0.01 0.11 0.15 0.14 0.07 0.03 0.00 0.00 0.03 0.02 0.00 0.00 0.02 0.04 0.06 0.00 0.01 0.01 0.01 0.01
0.00 0.00 0.00 0.00 0.00 0.00 0.00 0.00 0.01 0.00 0.00 0.01 0.01 0.01 0.07 0.06 0.01 0.06 0.05 0.00 0.00 0.00 0.00 0.00 0.00 0.07 0.06 0.03 0.06 0.12 0.02 0.01 0.00 0.00 0.01 0.02 0.02 0.09 0.00 0.00 0.00 0.01 0.00
0.00 0.00 0.00 0.00 0.00 0.00 0.00 0.00 0.00 0.00 0.00 0.00 0.00 0.09 0.05 0.00 0.00 0.01 0.04 0.02 0.00 0.00 0.01 0.07 0.00 0.02 0.07 0.13 0.18 0.25 0.10 0.01 0.00 0.00 0.01 0.03 0.02 0.05 0.00 0.00 0.00 0.01 0.00
0.00 0.00 0.00 0.00 0.00 0.00 0.00 0.00 0.00 0.00 0.00 0.00 0.00 0.01 0.00 0.00 0.00 0.00 0.00 0.00 0.00 0.00 0.00 0.02 0.00 0.08 0.12 0.14 0.02 0.04 0.03 0.02 0.00 0.00 0.01 0.06 0.05 0.02 0.02 0.02 0.01 0.02 0.04
0.00 0.00 0.00 0.00 0.00 0.00 0.00 0.00 0.00 0.00 0.00 0.00 0.00 0.00 0.00 0.00 0.00 0.00 0.00 0.00 0.00 0.00 0.00 0.00 0.01 0.01 0.03 0.07 0.02 0.04 0.00 0.05 0.01 0.01 0.01 0.11 0.05 0.02 0.10 0.13 0.04 0.01 0.02
0.00 0.00 0.00 0.00 0.00 0.00 0.00 0.00 0.00 0.00 0.00 0.00 0.00 0.00 0.00 0.00 0.00 0.00 0.00 0.00 0.00 0.01 0.00 0.00 0.01 0.05 0.04 0.02 0.12 0.07 0.06 0.02 0.02 0.03 0.02 0.11 0.03 0.03 0.19 0.20 0.01 0.04 0.01
0.01 0.02 0.02 0.00 0.00 0.00 0.00 0.00 0.00 0.00 0.00 0.00 0.02 0.00 0.00 0.00 0.00 0.00 0.00 0.00 0.00 0.00 0.00 0.00 0.00 0.07 0.01 0.04 0.03 0.09 0.08 0.14 0.06 0.03 0.02 0.06 0.07 0.06 0.16 0.26 0.08 0.00 0.01
0.01 0.06 0.09 0.03 0.00 0.00 0.00 0.00 0.00 0.00 0.00 0.00 0.02 0.01 0.04 0.01 0.00 0.00 0.00 0.00 0.00 0.00 0.00 0.00 0.01 0.05 0.00 0.01 0.01 0.06 0.03 0.11 0.17 0.03 0.01 0.00 0.06 0.05 0.05 0.17 0.08 0.02 0.00
0.13 0.09 0.07 0.06 0.13 0.05 0.00 0.01 0.01 0.00 0.00 0.00 0.01 0.13 0.16 0.04 0.00 0.00 0.00 0.00 0.00 0.00 0.01 0.01 0.07 0.04 0.02 0.00 0.04 0.01 0.04 0.04 0.12 0.06 0.00 0.00 0.00 0.01 0.03 0.02 0.04 0.02 0.00
0.20 0.07 0.07 0.03 0.15 0.22 0.10 0.06 0.00 0.00 0.00 0.00 0.03 0.10 0.21 0.03 0.00 0.00 0.00 0.00 0.00 0.00 0.01 0.02 0.09 0.01 0.12 0.04 0.02 0.01 0.01 0.01 0.01 0.03 0.01 0.00 0.00 0.00 0.00 0.00 0.00 0.01 0.00
0.16 0.04 0.01 0.01 0.05 0.06 0.13 0.04 0.00 0.00 0.00 0.00 0.02 0.20 0.08 0.02 0.13 0.11 0.02 0.00 0.00 0.00 0.00 0.06 0.06 0.01 0.03 0.00 0.02 0.05 0.00 0.01 0.00 0.03 0.00 0.00 0.00 0.00 0.00 0.00 0.00 0.00 0.00
0.04 0.03 0.02 0.01 0.00 0.02 0.02 0.01 0.00 0.00 0.00 0.00 0.01 0.21 0.15 0.03 0.10 0.08 0.01 0.00 0.00 0.00 0.00 0.01 0.05 0.00 0.00 0.01 0.02 0.00 0.00 0.00 0.00 0.00 0.00 0.00 0.00 0.00 0.00 0.00 0.00 0.00 0.00
0.00 0.00 0.01 0.00 0.00 0.09 0.06 0.04 0.00 0.00 0.00 0.00 0.04 0.20 0.21 0.05 0.09 0.05 0.00 0.00 0.00 0.00 0.00 0.00 0.01 0.00 0.00 0.01 0.02 0.00 0.00 0.00 0.03 0.01 0.05 0.01 0.00 0.00 0.00 0.00 0.00 0.00 0.00
0.00 0.00 0.02 0.00 0.02 0.01 0.01 0.04 0.00 0.00 0.00 0.00 0.13 0.24 0.25 0.10 0.05 0.02 0.01 0.00 0.00 0.00 0.00 0.00 0.00 0.01 0.00 0.00 0.01 0.02 0.00 0.00 0.03 0.01 0.02 0.05 0.03 0.01 0.00 0.00 0.00 0.00 0.00
0.00 0.00 0.00 0.00 0.00 0.00 0.00 0.00 0.00 0.00 0.00 0.00 0.05 0.08 0.17 0.16 0.02 0.02 0.05 0.06 0.02 0.00 0.00 0.00 0.00 0.00 0.00 0.00 0.01 0.04 0.01 0.02 0.00 0.02 0.01 0.13 0.02 0.01 0.00 0.00 0.00 0.00 0.00
0.00 0.00 0.00 0.00 0.00 0.02 0.00 0.00 0.00 0.00 0.00 0.00 0.00 0.00 0.04 0.02 0.00 0.00 0.00 0.02 0.02 0.00 0.00 0.00 0.00 0.00 0.01 0.14 0.03 0.05 0.03 0.03 0.00 0.00 0.00 0.02 0.00 0.02 0.00 0.02 0.00 0.00 0.00
0.00 0.00 0.00 0.00 0.01 0.00 0.00 0.00 0.00 0.00 0.00 0.00 0.00 0.00 0.00 0.00 0.00 0.00 0.00 0.00 0.00 0.00 0.00 0.00 0.00 0.00 0.00 0.02 0.05 0.11 0.08 0.11 0.04 0.00 0.00 0.00 0.00 0.00 0.00 0.01 0.00 0.01 0.01
MSLP
1013.07 1013.15 1013.23 1013.46 1013.68 1013.89 1014.19 1014.42 1014.51 1014.60 1014.63 1014.77 1014.98 1015.17 1015.42 1015.69 1015.99 1016.16 1016.32 1016.54 1016.69 1016.88 1017.12 1017.17 1017.12 1017.11 1017.26 1017.31 1017.40 1017.49 1017.62 1017.70 1017.89 1017.93 1018.01 1018.22 1018.37 1018.46 1018.42 1018.49 1018.67 1018.91 1019.05
1012.52 1013.09 1013.40 1013.66 1013.93 1014.14 1014.31 1014.65 1014.87 1015.03 1015.20 1015.21 1015.35 1015.52 1015.73 1015.91 1016.13 1016.37 1016.56 1016.70 1016.92 1017.09 1017.31 1017.39 1017.38 1017.37 1017.53 1017.51 1017.58 1017.71 1017.83 1017.99 1018.03 1018.09 1018.30 1018.43 1018.57 1018.71 1018.83 1018.96 1019.05 1019.14 1019.35
1012.71 1013.14 1013.60 1013.79 1014.00 1014.35 1014.54 1014.83 1015.17 1015.34 1015.53 1015.61 1015.56 1015.72 1015.93 1016.13 1016.35 1016.54 1016.69 1016.88 1017.09 1017.25 1017.51 1017.63 1017.67 1017.66 1017.63 1017.69 1017.87 1017.89 1018.02 1018.11 1018.22 1018.28 1018.40 1018.66 1018.75 1018.81 1018.93 1019.18 1019.36 1019.64 1019.79
1012.75 1013.20 1013.63 1013.89 1014.13 1014.47 1014.75 1015.01 1015.37 1015.63 1015.81 1015.99 1016.07 1016.10 1016.24 1016.45 1016.59 1016.77 1016.87 1017.04 1017.30 1017.49 1017.69 1017.73 1017.61 1017.68 1017.71 1017.85 1018.06 1018.14 1018.28 1018.45 1018.57 1018.72 1019.00 1018.98 1018.87 1019.02 1019.22 1019.36 1019.55 1019.87 1020.13
1013.09 1013.51 1013.86 1014.19 1014.46 1014.71 1014.99 1015.25 1015.52 1015.86 1016.07 1016.23 1016.39 1016.42 1016.45 1016.55 1016.83 1016.88 1017.02 1017.26 1017.46 1017.62 1017.79 1017.84 1017.83 1017.80 1017.83 1018.01 1018.21 1018.55 1018.66 1018.73 1018.89 1019.05 1019.33 1019.43 1019.44 1019.40 1019.52 1019.63 1019.81 1020.07 1020.33
1013.25 1013.77 1014.08 1014.37 1014.63 1014.90 1015.28 1015.51 1015.70 1016.01 1016.28 1016.47 1016.70 1016.89 1016.98 1017.02 1017.01 1017.21 1017.27 1017.37 1017.61 1017.77 1017.91 1017.94 1018.00 1018.25 1018.35 1018.23 1018.32 1018.61 1018.57 1018.87 1019.03 1019.63 1019.59 1019.63 1019.81 1019.79 1019.87 1019.95 1020.05 1020.31 1020.51
1013.58 1013.93 1014.16 1014.55 1014.87 1015.26 1015.56 1015.89 1016.06 1016.17 1016.39 1016.69 1016.81 1017.03 1017.18 1017.19 1017.26 1017.32 1017.55 1017.66 1017.83 1017.99 1017.99 1018.13 1018.35 1018.47 1018.43 1018.48 1018.54 1018.67 1018.75 1018.90 1019.48 1019.77 1019.97 1019.87 1020.04 1019.94 1020.02 1020.20 1020.40 1020.60 1020.78
1013.43 1013.93 1014.26 1014.66 1015.01 1015.26 1015.41 1015.82 1016.29 1016.49 1016.71 1016.86 1017.04 1017.16 1017.21 1017.40 1017.50 1017.62 1017.80 1017.89 1017.97 1018.09 1018.09 1018.25 1018.41 1018.56 1018.63 1018.71 1018.66 1018.75 1018.87 1019.06 1019.35 1019.69 1019.89 1020.06 1020.26 1020.31 1020.37 1020.33 1020.64 1020.89 1021.05
1013.57 1014.19 1014.53 1014.90 1015.17 1015.49 1015.82 1016.12 1016.22 1016.54 1016.81 1016.95 1017.03 1017.22 1017.35 1017.44 1017.59 1017.77 1017.95 1017.97 1018.07 1018.13 1018.20 1018.30 1018.45 1018.57 1018.67 1018.77 1018.70 1018.81 1018.91 1019.15 1019.59 1019.75 1019.83 1019.80 1019.88 1020.24 1020.29 1020.58 1020.80 1021.04 1021.29
1014.08 1014.26 1014.54 1015.03 1015.31 1015.61 1015.85 1016.01 1016.32 1016.39 1016.70 1016.93 1017.14 1017.30 1017.43 1017.57 1017.60 1017.94 1018.13 1018.04 1018.06 1018.20 1018.27 1018.33 1018.36 1018.55 1018.64 1018.67 1018.67 1018.91 1019.05 1019.20 1019.58 1019.73 1019.81 1019.95 1019.93 1019.87 1020.33 1020.53 1020.84 1020.98 1021.27
1014.60 1014.67 1014.62 1014.94 1015.26 1015.68 1015.91 1016.07 1016.26 1016.49 1016.82 1017.02 1017.31 1017.52 1017.61 1017.93 1018.07 1018.29 1018.31 1018.16 1018.13 1018.20 1018.19 1018.21 1018.18 1018.37 1018.37 1018.48 1018.55 1018.87 1018.95 1019.23 1019.57 1019.82 1019.88 1020.02 1020.10 1020.11 1020.29 1020.57 1020.88 1021.15 1021.31
1014.52 1014.87 1014.92 1014.86 1015.19 1015.67 1015.87 1016.11 1016.33 1016.57 1016.82 1017.23 1017.51 1017.78 1018.08 1018.23 1018.41 1018.46 1018.45 1018.18 1018.01 1018.14 1017.99 1018.10 1017.87 1017.96 1018.01 1018.44 1018.71 1018.83 1019.01 1019.19 1019.37 1019.63 1019.90 1020.02 1020.09 1020.22 1020.27 1020.64 1020.88 1021.15 1021.37
1014.04 1014.53 1014.81 1015.08 1015.21 1015.57 1015.77 1016.14 1016.30 1016.72 1016.88 1017.25 1017.60 1017.83 1018.13 1018.33 1018.41 1018.43 1018.51 1018.28 1018.14 1018.10 1018.21 1018.07 1017.91 1017.95 1018.20 1018.54 1018.72 1018.94 1019.06 1019.23 1019.27 1019.45 1019.65 1019.91 1020.18 1020.06 1020.24 1020.63 1020.87 1021.14 1021.25
1013.91 1014.29 1014.69 1014.91 1015.07 1015.56 1015.78 1016.03 1016.29 1016.65 1016.88 1017.25 1017.55 1017.77 1018.13 1018.37 1018.52 1018.49 1018.47 1018.20 1018.15 1018.12 1018.14 1018.11 1018.04 1017.89 1017.91 1018.19 1018.37 1018.57 1018.75 1019.09 1019.23 1019.31 1019.57 1019.82 1020.16 1020.15 1020.24 1020.47 1020.84 1021.12 1021.37
1014.17 1014.27 1014.70 1014.96 1015.23 1015.47 1015.77 1015.98 1016.13 1016.38 1016.61 1016.97 1017.43 1017.67 1017.93 1018.34 1018.50 1018.57 1018.36 1018.21 1018.13 1018.13 1018.13 1018.11 1017.93 1017.79 1017.77 1017.83 1018.04 1018.30 1018.53 1018.70 1018.98 1019.10 1019.44 1019.67 1020.07 1020.04 1020.10 1020.65 1020.75 1021.05 1021.27
1013.73 1014.15 1014.67 1014.83 1015.02 1015.31 1015.68 1015.73 1015.80 1016.21 1016.40 1016.70 1017.07 1017.36 1017.65 1018.08 1018.31 1018.29 1018.27 1018.06 1018.13 1018.21 1018.12 1018.01 1017.78 1017.62 1017.56 1017.69 1017.81 1018.10 1018.23 1018.67 1018.78 1019.04 1019.25 1019.48 1019.44 1019.85 1020.20 1020.41 1020.54 1020.83 1021.06
1013.33 1013.78 1014.43 1014.71 1014.71 1015.33 1015.55 1015.50 1015.68 1015.89 1016.15 1016.50 1016.71 1016.98 1017.22 1017.70 1017.85 1017.90 1017.94 1017.97 1017.95 1018.15 1017.96 1017.70 1017.51 1017.44 1017.46 1017.44 1017.78 1017.88 1017.95 1018.31 1018.63 1018.68 1018.88 1019.05 1019.18 1019.45 1019.93 1020.21 1020.37 1020.61 1020.87
1012.87 1013.65 1014.15 1014.46 1014.76 1015.13 1015.61 1015.45 1015.47 1015.67 1015.97 1016.14 1016.31 1016.71 1016.93 1017.25 1017.44 1017.67 1017.65 1017.79 1017.83 1018.03 1017.95 1017.71 1017.79 1017.60 1017.43 1017.37 1017.21 1017.46 1017.66 1017.81 1018.13 1018.57 1018.68 1018.83 1019.03 1019.30 1019.57 1019.77 1020.14 1020.44 1020.71
1012.86 1013.21 1013.94 1014.22 1014.55 1015.17 1015.30 1015.45 1015.43 1015.54 1015.85 1015.84 1016.01 1016.45 1016.68 1016.79 1017.15 1017.35 1017.56 1017.64 1017.68 1017.97 1017.91 1017.75 1017.83 1017.69 1017.60 1017.39 1017.34 1017.23 1017.24 1017.50 1017.59 1018.13 1018.29 1018.63 1018.79 1019.05 1019.29 1019.52 1019.73 1020.07 1020.31
1012.84 1013.14 1013.67 1014.02 1014.57 1014.93 1015.13 1015.39 1015.34 1015.49 1015.51 1015.78 1015.90 1016.24 1016.24 1016.44 1016.72 1017.14 1017.31 1017.56 1017.60 1017.92 1017.93 1017.71 1017.60 1017.62 1017.48 1017.45 1017.41 1017.42 1017.19 1017.27 1017.30 1017.56 1017.77 1018.23 1018.48 1018.76 1019.00 1019.32 1019.52 1019.69 1019.85
1012.91 1013.35 1013.63 1014.17 1014.52 1014.85 1015.06 1015.36 1015.40 1015.51 1015.66 1015.75 1015.65 1015.86 1016.18 1016.15 1016.43 1016.78 1017.11 1017.39 1017.49 1017.84 1017.82 1017.67 1017.55 1017.52 1017.60 1017.45 1017.43 1017.53 1017.38 1017.35 1017.57 1017.49 1017.47 1017.88 1018.05 1018.28 1018.64 1018.97 1019.15 1019.43 1019.57
1012.98 1013.14 1013.77 1013.87 1014.21 1014.53 1014.55 1014.88 1015.07 1015.28 1015.39 1015.22 1015.13 1015.42 1015.89 1015.92 1016.18 1016.62 1016.86 1017.39 1017.38 1017.77 1017.77 1017.58 1017.52 1017.57 1017.52 1017.47 1017.55 1017.82 1017.93 1017.87 1017.52 1017.53 1017.60 1017.68 1018.01 1018.11 1018.36 1018.64 1018.79 1018.96 1019.19
1012.99 1013.16 1013.43 1013.60 1013.93 1014.07 1014.35 1014.94 1015.18 1015.39 1015.42 1015.25 1015.32 1015.39 1015.58 1015.58 1015.88 1016.21 1016.43 1016.90 1017.15 1017.46 1017.49 1017.35 1017.32 1017.45 1017.50 1017.39 1017.43 1017.64 1017.94 1018.09 1018.01 1017.59 1017.61 1017.78 1018.02 1018.08 1018.01 1018.19 1018.28 1018.33 1018.53
1012.91 1012.97 1013.05 1013.24 1013.59 1013.97 1014.29 1014.70 1014.92 1015.14 1015.40 1015.12 1015.21 1014.95 1015.36 1015.42 1015.67 1015.77 1016.13 1016.45 1016.71 1017.00 1017.18 1017.18 1017.09 1017.11 1017.38 1017.48 1017.46 1017.41 1017.57 1017.78 1018.10 1018.18 1017.80 1017.84 1017.74 1017.77 1017.69 1017.67 1017.65 1017.83 1018.02
1012.56 1012.66 1012.89 1013.28 1013.56 1013.91 1013.99 1014.11 1014.56 1014.99 1015.11 1015.06 1014.98 1015.04 1015.34 1015.31 1015.36 1015.47 1015.71 1016.09 1016.56 1016.66 1016.73 1016.82 1016.99 1017.03 1017.12 1017.29 1017.34 1017.49 1017.70 1017.93 1017.99 1018.17 1018.18 1017.87 1017.59 1017.32 1017.37 1017.34 1017.05 1017.30 1017.53
1012.15 1012.39 1012.76 1013.11 1013.29 1013.34 1013.61 1013.98 1014.39 1014.61 1014.91 1014.97 1014.99 1015.14 1015.22 1015.21 1015.25 1015.16 1015.24 1015.65 1016.00 1016.35 1016.43 1016.54 1016.78 1016.93 1017.00 1016.98 1017.13 1017.39 1017.53 1017.85 1017.90 1018.11 1018.25 1017.98 1017.78 1017.17 1016.95 1016.89 1016.91 1016.77 1016.94
Thickness
5784 5784 5783 5782 5779 5778 5775 5775 5775 5775 5775 5774 5772 5769 5766 5763 5759 5757 5755 5753 5750 5748 5745 5743 5742 5742 5741 5739 5739 5738 5737 5738 5736 5736 5737 5736 5734 5735 5737 5738 5737 5736 5736
5791 5785 5782 5780 5779 5777 5776 5774 5773 5772 5770 5770 5768 5766 5764 5762 5759 5756 5753 5750 5747 5745 5744 5741 5740 5740 5738 5739 5738 5738 5736 5735 5736 5735 5734 5734 5734 5733 5733 5733 5734 5735 5734
5791 5785 5781 5780 5779 5776 5775 5773 5770 5768 5766 5765 5766 5765 5763 5759 5756 5754 5751 5749 5746 5744 5741 5740 5738 5738 5738 5738 5736 5736 5735 5735 5734 5735 5735 5735 5733 5733 5733 5732 5731 5730 5730
5790 5786 5783 5780 5778 5774 5771 5770 5766 5765 5764 5762 5761 5760 5759 5756 5754 5752 5750 5748 5745 5743 5741 5738 5739 5740 5738 5737 5735 5734 5733 5732 5731 5729 5729 5730 5731 5730 5730 5729 5730 5729 5727
5789 5784 5781 5778 5775 5772 5770 5768 5765 5763 5761 5760 5758 5758 5757 5756 5753 5752 5749 5747 5745 5743 5740 5739 5740 5740 5738 5736 5734 5731 5730 5729 5727 5727 5725 5724 5724 5725 5726 5726 5728 5727 5726
5790 5783 5779 5777 5775 5772 5768 5766 5764 5762 5759 5758 5755 5753 5752 5752 5752 5750 5749 5748 5745 5743 5741 5740 5740 5738 5737 5735 5733 5730 5731 5728 5725 5721 5722 5721 5719 5719 5721 5723 5725 5725 5725
5789 5783 5780 5776 5773 5769 5766 5763 5761 5761 5759 5756 5754 5752 5751 5750 5750 5750 5748 5746 5744 5743 5741 5740 5738 5736 5736 5734 5733 5732 5730 5728 5726 5722 5719 5720 5717 5718 5720 5721 5721 5723 5723
5791 5784 5780 5776 5773 5771 5771 5766 5760 5757 5755 5754 5752 5751 5750 5749 5748 5748 5746 5745 5745 5743 5742 5740 5737 5736 5735 5734 5733 5732 5731 5727 5726 5724 5722 5719 5715 5713 5718 5720 5720 5720 5721
5789 5782 5778 5775 5772 5768 5766 5763 5763 5758 5754 5751 5751 5749 5748 5748 5748 5747 5746 5745 5745 5744 5743 5741 5739 5737 5736 5734 5735 5733 5732 5729 5726 5724 5724 5724 5721 5717 5719 5719 5719 5719 5718
5784 5781 5778 5774 5770 5769 5767 5765 5762 5761 5756 5752 5750 5748 5746 5746 5746 5745 5745 5745 5745 5744 5742 5741 5741 5739 5737 5736 5735 5732 5730 5728 5727 5725 5723 5723 5723 5722 5719 5720 5719 5720 5720
5777 5777 5776 5774 5772 5768 5766 5764 5762 5761 5756 5753 5749 5745 5743 5744 5745 5744 5744 5745 5745 5744 5744 5743 5743 5741 5740 5738 5735 5730 5731 5730 5728 5724 5723 5721 5719 5720 5718 5718 5719 5719 5720
5772 5770 5772 5773 5771 5767 5765 5764 5762 5761 5758 5753 5750 5745 5743 5743 5744 5744 5745 5746 5747 5746 5747 5745 5746 5745 5743 5739 5735 5733 5733 5730 5728 5726 5723 5719 5717 5716 5718 5718 5718 5719 5720
5775 5772 5771 5770 5768 5766 5766 5764 5764 5761 5760 5755 5753 5751 5746 5744 5744 5745 5746 5748 5749 5749 5748 5748 5748 5747 5744 5741 5738 5736 5733 5730 5729 5726 5723 5718 5715 5716 5717 5717 5719 5720 5722
5773 5772 5771 5769 5768 5765 5765 5764 5763 5762 5761 5757 5754 5752 5748 5746 5744 5743 5745 5749 5750 5750 5749 5749 5749 5749 5747 5744 5742 5740 5736 5733 5731 5728 5723 5719 5716 5715 5716 5717 5720 5719 5720
5767 5769 5766 5767 5766 5765 5763 5764 5764 5763 5763 5759 5755 5754 5751 5746 5744 5744 5745 5748 5749 5748 5749 5749 5751 5751 5750 5748 5745 5743 5740 5737 5734 5732 5726 5721 5717 5716 5718 5718 5721 5720 5721
5772 5767 5762 5765 5764 5763 5763 5765 5765 5763 5764 5761 5758 5758 5753 5749 5746 5745 5745 5747 5747 5747 5748 5749 5752 5754 5753 5749 5747 5744 5742 5738 5736 5734 5731 5727 5724 5721 5720 5721 5723 5723 5723
5773 5769 5762 5760 5764 5762 5763 5764 5764 5764 5763 5761 5760 5759 5755 5750 5748 5747 5747 5745 5747 5747 5748 5750 5753 5754 5753 5751 5748 5746 5746 5743 5739 5739 5738 5735 5732 5728 5726 5724 5725 5725 5724
5776 5768 5763 5761 5760 5758 5760 5763 5764 5765 5763 5763 5762 5759 5756 5752 5750 5749 5749 5747 5747 5747 5748 5751 5752 5752 5753 5753 5753 5751 5750 5747 5744 5740 5741 5740 5738 5734 5733 5730 5727 5726 5726
5771 5769 5761 5756 5757 5757 5760 5762 5764 5764 5763 5764 5762 5759 5756 5754 5751 5750 5748 5747 5746 5746 5748 5750 5750 5752 5751 5754 5754 5755 5755 5751 5749 5745 5744 5742 5742 5738 5737 5735 5733 5731 5730
5770 5766 5760 5758 5757 5758 5762 5761 5763 5763 5764 5763 5760 5756 5757 5755 5753 5749 5748 5746 5746 5746 5748 5750 5752 5753 5754 5754 5754 5752 5755 5754 5753 5753 5750 5746 5743 5741 5740 5738 5736 5735 5734
5767 5762 5760 5756 5758 5760 5761 5760 5759 5759 5760 5760 5760 5757 5755 5754 5753 5751 5748 5747 5747 5746 5748 5751 5751 5752 5752 5754 5751 5750 5751 5753 5751 5752 5753 5749 5747 5745 5744 5741 5739 5738 5738
5767 5765 5760 5760 5761 5763 5765 5763 5762 5761 5761 5762 5763 5758 5753 5751 5751 5749 5747 5746 5747 5746 5748 5750 5751 5750 5752 5753 5748 5745 5739 5743 5748 5750 5752 5752 5749 5747 5745 5744 5742 5743 5743
5765 5764 5765 5766 5766 5767 5765 5762 5760 5759 5758 5758 5760 5758 5754 5751 5749 5749 5748 5747 5748 5749 5750 5752 5753 5752 5751 5754 5752 5746 5734 5733 5737 5748 5749 5749 5747 5747 5747 5747 5747 5747 5747
5767 5769 5770 5770 5768 5768 5767 5762 5760 5757 5753 5758 5759 5760 5753 5750 5748 5751 5750 5750 5750 5750 5751 5753 5755 5754 5753 5750 5751 5752 5748 5744 5735 5733 5743 5745 5748 5748 5750 5751 5751 5751 5750
5773 5773 5774 5771 5771 5769 5768 5766 5762 5759 5759 5760 5759 5757 5753 5752 5752 5755 5754 5753 5752 5753 5755 5756 5756 5757 5756 5752 5751 5749 5747 5744 5743 5737 5733 5738 5747 5751 5753 5753 5755 5754 5753
5776 5775 5773 5771 5770 5771 5770 5770 5765 5764 5760 5758 5758 5755 5754 5754 5756 5758 5759 5757 5756 5756 5757 5758 5758 5757 5757 5757 5754 5751 5748 5743 5743 5740 5735 5737 5741 5751 5755 5757 5757 5758 5757